Retour au catalogue

TITAN 3C TRANSTAGE DEB

ActifLEO
NORAD 1716·DEBRIS·🇺🇸 United States

Lancé Oct 15, 1965 depuis Cape Canaveral Space Force Station

Loading…

Prochains Passages (prochaines 24 heures)

TLE

FraisSource: Space-Track

Époque: Sep 14, 2026, 09:36 UTC

1 01716U 65082BX  26257.40064908  .00000469  00000-0  92840-4 0  9995
2 01716  32.1889 144.7339 0037637  35.6247 324.6901 14.57649781221521

Suivez TITAN 3C TRANSTAGE DEB en temps réel avec AllMySat

Download on the App Store